Weather History for Inverness, FL

Change the Weather History Date:

Wednesday, January 2, 2013

  Actual Average (KOCF) Record (KOCF)
Temperature  
Mean Temperature 64 °F -  
Max Temperature 78 °F 66 °F 82 °F (1999)
Min Temperature 50 °F 41 °F 28 °F (2001)
Degree Days  
Heating Degree Days 1    
Growing Degree Days 14 (Base 50)    
Moisture  
Dew Point 60 °F    
Average Humidity 88    
Maximum Humidity 100    
Minimum Humidity 57    
Precipitation  
Precipitation 0.00 in - - ()
Sea Level Pressure  
Sea Level Pressure 30.05 in    
Wind  
Wind Speed 2 mph (WSW)    
Max Wind Speed 8 mph    
Max Gust Speed -    
Visibility 8 miles    
Events Fog    
Averages and records for this station are not official NWS values.
T = Trace of Precipitation, MM = Missing Value Source: NWS Daily Summary

Daily Weather History Graph

Daily Weather History Graph

Search for Another Location

Airport:

Trip Planner

Search our weather history database for the weather conditions in past years. The results will help you decide how hot, cold, wet, or windy it might be!

Date:

Astronomy

Jan. 02, 2013 Rise Set
Actual Time 7:22 AM EST 5:44 PM EST
Civil Twilight 6:56 AM EST 6:10 PM EST
Nautical Twilight 6:27 AM EST 6:39 PM EST
Astronomical Twilight 5:58 AM EST 7:08 PM EST
Moon 10:47 PM EST (1/2) 10:29 AM EST (1/2)
Length of Visible Light 11h 13m
Length of Day
10h 21m
Waning Gibbous, 75% of the Moon is Illuminated
Jan 2
Waning Gibbous
Jan 4
Last Quarter
Jan 11
New
Jan 18
First Quarter
Jan 26
Full

Hourly Weather History & Observations

Time (EST) Temp. Dew Point Humidity Pressure Visibility Wind Dir Wind Speed Gust Speed Precip Events Conditions
12:15 AM 53.6 °F 51.8 °F 94% 30.05 in 5.0 mi Calm Calm - N/A   Clear
12:35 AM 51.8 °F 51.8 °F 100% 30.05 in 7.0 mi Calm Calm - N/A   Clear
12:55 AM 51.8 °F 51.8 °F 100% 30.04 in 5.0 mi Calm Calm - N/A   Clear
1:15 AM 50.0 °F 50.0 °F 100% 30.04 in 10.0 mi Calm Calm - N/A   Clear
1:35 AM 50.0 °F 50.0 °F 100% 30.04 in 10.0 mi Calm Calm - N/A   Clear
1:55 AM 51.8 °F 50.0 °F 94% 30.04 in 10.0 mi Calm Calm - N/A   Clear
2:15 AM 50.0 °F 50.0 °F 100% 30.04 in 10.0 mi Calm Calm - N/A   Clear
2:35 AM 50.0 °F 50.0 °F 100% 30.03 in 10.0 mi Calm Calm - N/A   Clear
2:55 AM 50.0 °F 50.0 °F 100% 30.03 in 10.0 mi Calm Calm - N/A   Clear
3:15 AM 50.0 °F 50.0 °F 100% 30.04 in 7.0 mi Calm Calm - N/A   Clear
3:35 AM 50.0 °F 50.0 °F 100% 30.04 in 10.0 mi Calm Calm - N/A   Clear
4:15 AM 50.0 °F 50.0 °F 100% 30.04 in 5.0 mi Calm Calm - N/A   Clear
4:35 AM 50.0 °F 50.0 °F 100% 30.04 in 7.0 mi Calm Calm - N/A   Clear
4:55 AM 50.0 °F 50.0 °F 100% 30.04 in 10.0 mi Calm Calm - N/A   Mostly Cloudy
5:15 AM 51.8 °F 51.8 °F 100% 30.04 in 10.0 mi Calm Calm - N/A   Overcast
5:35 AM 51.8 °F 50.0 °F 94% 30.03 in 10.0 mi Calm Calm - N/A   Scattered Clouds
5:55 AM 51.8 °F 51.8 °F 100% 30.03 in 10.0 mi Calm Calm - N/A   Scattered Clouds
6:15 AM 51.8 °F 51.8 °F 100% 30.04 in 10.0 mi Calm Calm - N/A   Scattered Clouds
6:35 AM 51.8 °F 51.8 °F 100% 30.04 in 10.0 mi Calm Calm - N/A   Mostly Cloudy
6:55 AM 53.6 °F 53.6 °F 100% 30.05 in 7.0 mi Calm Calm - N/A   Overcast
7:15 AM 55.4 °F 53.6 °F 94% 30.06 in 10.0 mi Calm Calm - N/A   Mostly Cloudy
7:35 AM 55.4 °F 53.6 °F 94% 30.05 in 7.0 mi Calm Calm - N/A   Scattered Clouds
7:55 AM 53.6 °F 53.6 °F 100% 30.05 in 2.5 mi Calm Calm - N/A   Scattered Clouds
8:15 AM 57.2 °F 57.2 °F 100% 30.05 in 7.0 mi Calm Calm - N/A   Scattered Clouds
8:35 AM 62.6 °F 62.6 °F 100% 30.06 in 5.0 mi SSW 3.5 mph - N/A   Clear
8:55 AM 66.2 °F 64.4 °F 94% 30.06 in 10.0 mi SW 3.5 mph - N/A   Clear
9:15 AM 68.0 °F 64.4 °F 88% 30.06 in 10.0 mi SSW 5.8 mph - N/A   Clear
9:35 AM 69.8 °F 64.4 °F 83% 30.07 in 10.0 mi South 6.9 mph - N/A   Clear
9:55 AM 71.6 °F 64.4 °F 78% 30.07 in 10.0 mi South 5.8 mph - N/A   Clear
10:15 AM 73.4 °F 64.4 °F 73% 30.07 in 10.0 mi SSW 4.6 mph - N/A   Clear
10:35 AM 75.2 °F 64.4 °F 69% 30.07 in 10.0 mi South 5.8 mph - N/A   Clear
10:55 AM 75.2 °F 62.6 °F 65% 30.06 in 10.0 mi SSW 8.1 mph - N/A   Clear
11:15 AM 78.8 °F 62.6 °F 57% 30.06 in 10.0 mi WSW 5.8 mph - N/A   Mostly Cloudy
11:35 AM 77.0 °F 62.6 °F 61% 30.06 in 10.0 mi SSW 6.9 mph - N/A   Overcast
11:55 AM 77.0 °F 64.4 °F 65% 30.04 in 10.0 mi SW 5.8 mph - N/A   Mostly Cloudy
12:15 PM 77.0 °F 64.4 °F 65% 30.03 in 10.0 mi West 5.8 mph - N/A   Mostly Cloudy
12:35 PM 75.2 °F 64.4 °F 69% 30.03 in 10.0 mi SW 4.6 mph - N/A   Scattered Clouds
12:55 PM 77.0 °F 62.6 °F 61% 30.03 in 10.0 mi WSW 4.6 mph - N/A   Mostly Cloudy
1:15 PM 77.0 °F 64.4 °F 65% 30.02 in 10.0 mi WSW 5.8 mph - N/A   Mostly Cloudy
1:35 PM 77.0 °F 64.4 °F 65% 30.01 in 10.0 mi West 6.9 mph - N/A   Mostly Cloudy
1:55 PM 77.0 °F 64.4 °F 65% 30.01 in 10.0 mi WSW 5.8 mph - N/A   Scattered Clouds
2:15 PM 77.0 °F 64.4 °F 65% 30.01 in 10.0 mi WSW 5.8 mph - N/A   Mostly Cloudy
2:35 PM 77.0 °F 64.4 °F 65% 30.01 in 10.0 mi West 8.1 mph - N/A   Mostly Cloudy
2:55 PM 73.4 °F 64.4 °F 73% 30.01 in 10.0 mi WSW 5.8 mph - N/A   Mostly Cloudy
3:15 PM 75.2 °F 64.4 °F 69% 30.01 in 10.0 mi West 5.8 mph - N/A   Mostly Cloudy
3:35 PM 75.2 °F 64.4 °F 69% 30.01 in 10.0 mi West 4.6 mph - N/A   Scattered Clouds
3:55 PM 73.4 °F 64.4 °F 73% 30.01 in 10.0 mi West 4.6 mph - N/A   Mostly Cloudy
4:15 PM 73.4 °F 64.4 °F 73% 30.02 in 10.0 mi Calm Calm - N/A   Scattered Clouds
4:35 PM 73.4 °F 64.4 °F 73% 30.02 in 10.0 mi Calm Calm - N/A   Scattered Clouds
4:55 PM 71.6 °F 66.2 °F 83% 30.02 in 10.0 mi West 6.9 mph - N/A   Scattered Clouds
5:15 PM 71.6 °F 66.2 °F 83% 30.02 in 10.0 mi West 3.5 mph - N/A   Clear
5:35 PM 71.6 °F 66.2 °F 83% 30.03 in 10.0 mi Calm Calm - N/A   Clear
5:55 PM 69.8 °F 66.2 °F 88% 30.03 in 10.0 mi WSW 3.5 mph - N/A   Clear
6:15 PM 69.8 °F 66.2 °F 88% 30.04 in 10.0 mi Calm Calm - N/A   Scattered Clouds
6:35 PM 69.8 °F 68.0 °F 94% 30.05 in 10.0 mi WSW 3.5 mph - N/A   Overcast
6:55 PM 69.8 °F 68.0 °F 94% 30.05 in 10.0 mi Calm Calm - N/A   Overcast
7:15 PM 68.0 °F 66.2 °F 94% 30.06 in 10.0 mi Calm Calm - N/A   Mostly Cloudy
7:55 PM 68.0 °F 66.2 °F 94% 30.07 in 7.0 mi Calm Calm - N/A   Overcast
8:15 PM 68.0 °F 66.2 °F 94% 30.07 in 7.0 mi WSW 3.5 mph - N/A   Overcast
8:35 PM 66.2 °F 66.2 °F 100% 30.07 in 7.0 mi Calm Calm - N/A   Overcast
8:55 PM 66.2 °F 66.2 °F 100% 30.08 in 4.0 mi WSW 3.5 mph - N/A   Overcast
9:15 PM 66.2 °F 64.4 °F 94% 30.09 in 1.5 mi Calm Calm - N/A   Overcast
9:35 PM 66.2 °F 64.4 °F 94% 30.09 in 0.5 mi Calm Calm - N/A Fog Fog
9:55 PM 64.4 °F 64.4 °F 100% 30.09 in 0.5 mi Calm Calm - N/A Fog Fog
10:15 PM 64.4 °F 64.4 °F 100% 30.09 in 0.2 mi Calm Calm - N/A Fog Fog
10:35 PM 64.4 °F 64.4 °F 100% 30.09 in 0.5 mi Calm Calm - N/A Fog Fog
10:55 PM 64.4 °F 64.4 °F 100% 30.09 in 0.2 mi Calm Calm - N/A Fog Fog
11:15 PM 64.4 °F 64.4 °F 100% 30.09 in 0.8 mi Calm Calm - N/A   Overcast
11:35 PM 64.4 °F 64.4 °F 100% 30.08 in 0.5 mi Calm Calm - N/A Fog Fog
11:55 PM 64.4 °F 64.4 °F 100% 30.08 in 0.5 mi North 3.5 mph - N/A Fog Fog